Stations météo

Publicité
Salon, France (7648): Température de l'air & dewpoint: 20.06.2019 20:00:00 - 26.06.2019 20:00:00 (CEST)Salon, France (7648): Température de l'air 5cm: 20.06.2019 20:00:00 - 26.06.2019 20:00:00 (CEST)Salon, France (7648): Vitesse du vent & gusts: 20.06.2019 20:00:00 - 26.06.2019 20:00:00 (CEST)Salon, France (7648): Direction du vent: 20.06.2019 20:00:00 - 26.06.2019 20:00:00 (CEST)Salon, France (7648): reduced air pressure: 20.06.2019 20:00:00 - 26.06.2019 20:00:00 (CEST)Salon, France (7648): visibility: 20.06.2019 20:00:00 - 26.06.2019 20:00:00 (CEST)Salon, France (7648): Quantités de précipitations: 20.06.2019 20:00:00 - 26.06.2019 20:00:00 (CEST)
Date & Time tt [°C] td [°C] tt 5cm [°C] ff [km/h] ff [knt] fx [km/h] fx [knt] dd ppp [hPa] vv [km] rr [mm]
26.06.2019 20:00:00 32,4 15,8 34,7 10 6 21 11 SSW 1020,5 56 0,0
26.06.2019 19:00:00 33,4 15,9 37,4 13 7 29 16 SSW 1020,2 60 0,0
26.06.2019 18:00:00 34,2 16,1 39,4 16 9 31 17 SSW 1020,1 35 0,0
26.06.2019 17:00:00 35,3 16,6 41,5 16 9 29 16 S 1020,1 35 0,0
26.06.2019 16:00:00 35,7 17,4 42,4 16 8 25 14 SW 1020,4 37 0,0
26.06.2019 15:00:00 35,5 16,3 42,6 16 9 26 14 SSW 1020,7 38 0,0
26.06.2019 14:00:00 35,7 16,9 42,5 19 10 29 16 SW 1021,1 43 0,0
26.06.2019 13:00:00 35,8 18,4 42,5 11 6 21 11 WNW 1021,3 19 0,0
26.06.2019 12:00:00 35,4 18,5 40,6 5 3 17 9 NNW 1021,5 32 0,0
26.06.2019 11:00:00 33,7 18,2 40,0 5 3 10 6 NNW 1021,7 20 0,0
26.06.2019 10:00:00 32,0 18,6 34,7 3 2 10 5 E 1022,1 32 0,0
26.06.2019 09:00:00 28,9 18,1 28,5 3 2 13 7 N 1022,2 25 0,0
26.06.2019 08:00:00 24,3 17,3 20,5 0 0 3 1 N 1021,7 20 0,0
26.06.2019 07:00:00 19,1 15,6 16,3 0 0 4 2 N 1021,8 16 0,0
26.06.2019 06:00:00 18,6 14,5 16,1 3 1 6 3 WSW 1021,4 26 0,0
26.06.2019 05:00:00 19,2 14,9 15,3 2 1 5 3 N 1021,1 36 0,0
26.06.2019 04:00:00 18,6 14,5 16,1 3 2 5 3 N 1021,2 40 0,0
26.06.2019 03:00:00 19,4 14,6 16,2 4 2 7 4 N 1021,5 43 0,0
26.06.2019 02:00:00 19,8 14,4 16,5 0 0 3 2 N 1021,6 46 0,0
26.06.2019 01:00:00 20,3 14,9 17,4 2 1 4 2 NNE 1021,6 57 0,0
26.06.2019 00:00:00 21,4 15,7 18,7 2 1 4 2 SSW 1021,7 50 0,0
25.06.2019 23:00:00 22,7 16,3 20,0 0 0 8 4 N 1021,4 50 0,0
25.06.2019 22:00:00 25,5 16,1 23,2 2 1 11 6 SW 1020,8 54 0,0
25.06.2019 21:00:00 28,3 14,9 27,6 8 4 19 10 SW 1020,1 60 0,0
25.06.2019 20:00:00 29,8 14,7 31,8 9 5 29 16 WSW 1019,7 59 0,0
25.06.2019 19:00:00 30,4 15,3 34,0 18 10 48 26 SSW 1019,1 50 0,0
25.06.2019 18:00:00 31,3 15,3 35,7 29 16 53 29 S 1018,6 28 0,0
25.06.2019 17:00:00 32,7 15,2 38,0 26 14 46 25 S 1018,5 31 0,0
25.06.2019 16:00:00 33,8 15,7 39,5 25 14 41 22 S 1018,4 33 0,0
25.06.2019 15:00:00 34,5 15,9 40,3 24 13 38 21 S 1018,4 39 0,0
25.06.2019 14:00:00 34,4 15,8 40,3 22 12 35 19 S 1018,6 46 0,0
25.06.2019 13:00:00 33,6 15,1 39,8 17 9 27 15 SW 1018,8 47 0,0
25.06.2019 12:00:00 33,8 14,8 39,7 13 7 27 14 S 1018,8 20 0,0
25.06.2019 11:00:00 34,1 15,5 38,0 13 7 35 19 SE 1018,5 42 0,0
25.06.2019 10:00:00 31,9 16,2 33,1 11 6 30 16 E 1018,8 37 0,0
25.06.2019 09:00:00 27,1 16,1 26,9 0 0 4 2 N 1019,2 17 0,0
25.06.2019 08:00:00 22,4 14,0 18,8 3 2 5 3 N 1019,4 23 0,0
25.06.2019 07:00:00 17,3 12,8 13,2 0 0 4 2 N 1019,3 47 0,0
25.06.2019 06:00:00 16,0 12,0 12,3 0 0 4 2 N 1019,0 49 0,0
25.06.2019 05:00:00 15,8 11,8 13,1 0 0 4 2 N 1018,9 41 0,0
25.06.2019 04:00:00 16,6 12,1 13,2 3 1 4 2 NNW 1018,8 52 0,0
25.06.2019 03:00:00 16,6 11,9 13,8 5 3 7 4 NE 1018,6 51 0,0
25.06.2019 02:00:00 18,0 12,0 14,4 0 0 5 3 N 1018,4 57 0,0
25.06.2019 01:00:00 18,8 12,5 15,9 3 2 4 2 N 1018,1 60 0,0
25.06.2019 00:00:00 19,6 13,8 16,4 0 0 2 1 N 1018,0 60 0,0
24.06.2019 23:00:00 21,2 14,4 18,9 2 1 4 2 E 1018,0 60 0,0
24.06.2019 22:00:00 23,1 14,1 20,7 2 1 4 2 NE 1017,5 57 0,0
24.06.2019 21:00:00 26,1 13,6 24,4 0 0 13 7 N 1017,0 60 0,0
24.06.2019 20:00:00 28,3 12,2 29,7 8 4 22 12 WSW 1016,7 60 0,0
24.06.2019 19:00:00 29,5 12,9 33,6 13 7 27 15 SSW 1016,6 40 0,0
24.06.2019 18:00:00 30,2 12,1 35,0 17 9 33 18 SSW 1016,7 50 0,0
24.06.2019 17:00:00 30,6 11,5 36,6 19 10 35 19 SSW 1016,8 20 0,0
24.06.2019 16:00:00 31,3 12,1 37,8 22 12 34 18 S 1016,8 20 0,0
24.06.2019 15:00:00 31,9 14,5 38,5 18 10 28 15 SW 1016,5 20 0,0
24.06.2019 14:00:00 32,7 15,7 38,7 18 10 33 18 SW 1016,3 20 0,0
24.06.2019 13:00:00 33,1 14,2 39,9 6 3 20 11 S 1016,3 20 0,0
24.06.2019 12:00:00 32,4 13,1 38,0 8 5 19 11 E 1016,7 60 0,0
24.06.2019 11:00:00 30,0 12,0 36,4 10 5 19 11 ESE 1017,1 60 0,0
24.06.2019 10:00:00 27,9 15,5 30,8 7 4 15 8 NE 1017,3 54 0,0
24.06.2019 09:00:00 24,2 15,7 21,1 9 5 15 8 ENE 1017,6 36 0,0
24.06.2019 08:00:00 19,3 15,6 17,5 6 4 13 7 ENE 1017,8 22 0,0
24.06.2019 07:00:00 16,9 14,2 15,2 5 3 10 5 NNE 1017,6 18 0,0
24.06.2019 06:00:00 16,4 14,1 13,8 7 4 11 6 S 1017,1 25 0,0
24.06.2019 05:00:00 15,9 13,9 13,4 3 2 9 5 ENE 1017,0 29 0,0
24.06.2019 04:00:00 16,0 13,8 14,3 0 0 9 5 N 1017,1 25 0,0
24.06.2019 03:00:00 16,0 14,2 14,3 6 4 11 6 ENE 1017,1 26 0,0
24.06.2019 02:00:00 16,5 14,3 14,8 4 2 8 4 NE 1017,7 31 0,0
24.06.2019 01:00:00 17,2 14,7 15,4 5 3 7 4 NE 1017,5 35 0,0
24.06.2019 00:00:00 17,8 15,2 16,1 0 0 4 2 N 1017,4 35 0,0
23.06.2019 23:00:00 20,1 16,5 16,6 0 0 4 2 N 1017,0 23 0,0
23.06.2019 22:00:00 22,5 17,2 21,3 2 1 13 7 SSW 1016,4 40 0,0
23.06.2019 21:00:00 23,8 17,5 23,3 10 5 16 8 SSW 1015,9 54 0,0
23.06.2019 20:00:00 25,0 17,2 26,2 10 5 24 13 SSW 1015,3 48 0,0
23.06.2019 19:00:00 25,5 16,6 28,0 18 10 29 16 SW 1014,8 60 0,0
23.06.2019 18:00:00 29,1 15,2 33,4 19 10 29 16 SW 1014,3 60 0,0
23.06.2019 17:00:00 30,3 13,6 32,7 15 8 24 13 SW 1014,4 60 0,0
23.06.2019 16:00:00 31,1 13,4 35,5 10 5 21 12 SW 1014,3 52 0,0
23.06.2019 15:00:00 29,0 14,0 33,9 14 8 27 15 SW 1014,7 49 0,0
23.06.2019 14:00:00 29,1 13,3 36,5 16 9 25 13 SW 1014,8 51 0,0
23.06.2019 13:00:00 29,2 15,7 36,4 13 7 29 16 SW 1014,8 58 0,0
23.06.2019 12:00:00 29,0 15,9 35,4 5 3 12 7 SSW 1014,8 55 0,0
23.06.2019 11:00:00 27,0 15,7 32,4 7 4 13 7 S 1014,8 60 0,0
23.06.2019 10:00:00 25,8 16,1 30,8 9 5 15 8 SSW 1014,7 59 0,0
23.06.2019 09:00:00 24,3 15,5 23,6 0 0 12 6 N 1014,3 57 0,0
23.06.2019 08:00:00 20,1 15,5 18,9 8 5 11 6 NE 1014,3 58 0,0
23.06.2019 07:00:00 16,4 14,1 13,3 8 4 10 6 NE 1014,5 47 0,0
23.06.2019 06:00:00 14,7 13,1 12,7 4 2 11 6 ENE 1014,5 36 0,0
23.06.2019 05:00:00 14,9 13,1 13,1 6 4 9 5 ENE 1014,5 49 0,0
23.06.2019 04:00:00 15,1 13,1 13,6 0 0 9 5 N 1014,7 50 0,0
23.06.2019 03:00:00 15,7 13,0 13,7 4 2 7 4 ENE 1014,7 60 0,0
23.06.2019 02:00:00 16,6 13,1 14,3 3 2 6 3 NNE 1014,8 60 0,0
23.06.2019 01:00:00 17,2 13,3 15,3 4 2 6 3 E 1014,8 60 0,0
23.06.2019 00:00:00 19,2 14,0 16,1 2 1 8 5 N 1014,7 60 0,0
22.06.2019 23:00:00 22,0 14,1 20,9 6 3 9 5 SSW 1014,7 60 0,0
22.06.2019 22:00:00 23,5 13,4 22,1 4 2 7 4 SW 1013,9 60 0,0
22.06.2019 21:00:00 25,4 12,6 24,8 3 2 16 8 SW 1013,4 56 0,0
22.06.2019 20:00:00 26,4 14,2 27,3 10 5 23 13 WSW 1013,0 60 0,0
22.06.2019 19:00:00 27,8 13,7 30,1 16 9 29 16 WSW 1012,9 60 0,0
22.06.2019 18:00:00 28,2 14,1 33,6 17 9 36 19 WSW 1012,7 60 0,0
22.06.2019 17:00:00 28,9 14,7 34,0 23 13 36 19 WSW 1012,9 60 0,0
22.06.2019 16:00:00 29,8 14,0 30,9 14 8 26 14 WNW 1012,9 45 0,0
22.06.2019 15:00:00 28,2 13,7 30,3 13 7 27 15 WNW 1013,4 60 0,0
22.06.2019 14:00:00 28,8 13,1 34,9 9 5 32 18 WNW 1013,8 59 0,0
22.06.2019 13:00:00 27,9 15,5 34,5 8 5 34 18 NW 1014,0 60 0,0
22.06.2019 12:00:00 26,4 16,0 32,6 11 6 23 12 NW 1014,3 60 0,0
22.06.2019 11:00:00 25,3 17,0 30,0 8 4 21 12 WNW 1014,3 56 0,0
22.06.2019 10:00:00 23,5 16,8 27,1 9 5 17 9 N 1014,4 45 0,0
22.06.2019 09:00:00 22,3 16,6 24,0 14 8 21 11 NNW 1014,4 60 0,0
22.06.2019 08:00:00 21,0 16,0 20,1 13 7 20 11 NNW 1014,5 60 0,0
22.06.2019 07:00:00 18,5 15,6 16,0 0 0 6 3 N 1014,4 32 0,0
22.06.2019 06:00:00 17,8 15,2 15,1 0 0 4 2 N 1014,3 29 0,0
22.06.2019 05:00:00 19,0 15,3 17,5 3 2 7 4 WSW 1014,4 49 0,0
22.06.2019 04:00:00 19,4 15,3 17,7 2 1 8 4 NW 1014,4 51 0,0
22.06.2019 03:00:00 20,1 15,7 17,6 2 1 10 5 WNW 1014,5 59 0,0
22.06.2019 02:00:00 20,6 16,2 18,3 3 1 11 6 W 1014,8 59 0,0
22.06.2019 01:00:00 20,1 17,5 18,6 3 2 6 3 N 1014,9 13 0,0
22.06.2019 00:00:00 21,2 17,4 19,8 3 2 6 3 SSW 1015,0 21 0,0
21.06.2019 23:00:00 21,2 17,4 20,1 0 0 10 5 N 1014,9 25 0,0
21.06.2019 22:00:00 20,8 17,4 20,1 4 2 9 5 NNW 1014,8 20 0,0
21.06.2019 21:00:00 22,1 17,9 21,9 5 3 13 7 WSW 1014,4 19 0,0
21.06.2019 20:00:00 22,9 17,8 23,0 11 6 19 10 WSW 1014,0 28 0,0
21.06.2019 19:00:00 24,2 17,0 24,9 10 5 18 10 SW 1013,8 34 0,0
21.06.2019 18:00:00 24,7 17,2 26,7 12 7 20 11 SW 1014,1 34 0,0
21.06.2019 17:00:00 24,6 16,3 26,6 15 8 31 17 SW 1013,9 43 0,0
21.06.2019 16:00:00 24,6 15,5 28,3 22 12 37 20 SW 1014,3 28 0,0
21.06.2019 15:00:00 26,7 16,3 30,9 21 11 34 18 SW 1013,7 29 0,0
21.06.2019 14:00:00 28,3 16,6 31,3 9 5 21 12 W 1013,8 39 0,0
21.06.2019 13:00:00 28,3 16,6 33,3 10 5 20 11 NNW 1014,0 20 0,0
21.06.2019 12:00:00 27,2 16,8 31,4 7 4 18 10 NW 1014,4 30 0,0
21.06.2019 11:00:00 25,4 17,3 29,7 6 3 16 9 NW 1014,5 29 0,0
21.06.2019 10:00:00 25,0 17,2 27,4 3 2 11 6 N 1014,5 20 0,0
21.06.2019 09:00:00 22,9 16,9 24,3 7 4 17 9 S 1014,4 30 0,0
21.06.2019 08:00:00 22,2 15,3 20,7 0 0 5 3 N 1014,2 49 0,0
21.06.2019 07:00:00 18,4 13,9 15,0 2 1 5 3 NW 1013,6 20 0,0
21.06.2019 06:00:00 17,4 13,3 15,2 0 0 8 4 N 1013,1 60 0,0
21.06.2019 05:00:00 17,7 13,8 16,2 8 5 12 7 ENE 1012,8 60 0,0
21.06.2019 04:00:00 20,4 12,9 18,3 7 4 23 13 NE 1012,9 60 0,0
21.06.2019 03:00:00 21,7 14,1 20,8 11 6 33 18 N 1013,2 60 0,0
21.06.2019 02:00:00 22,1 14,0 21,7 27 15 41 22 N 1013,4 60 0,0
21.06.2019 01:00:00 22,3 14,4 22,0 18 10 32 17 NNW 1014,2 60 0,0
21.06.2019 00:00:00 22,7 13,7 22,3 14 7 26 14 NNW 1014,1 60 0,0
20.06.2019 23:00:00 23,7 14,9 23,2 9 5 17 9 W 1014,0 60 0,0
20.06.2019 22:00:00 24,7 16,7 23,8 6 4 23 12 W 1013,3 60 0,0
20.06.2019 21:00:00 25,8 16,9 25,6 9 5 21 11 WSW 1012,4 59 0,0
20.06.2019 20:00:00 28,3 15,9 28,3 11 6 17 9 WSW 1011,7 57 0,0

tt = Température de l'air
td = dewpoint
tt 5cm = Température de l'air 5cm
ff = Vitesse du vent
fx = gusts
dd = Direction du vent
ppp = reduced air pressure
vv = visibility
rr = Quantités de précipitations

stations d'obs. à proximité